TimeCDT,TemperatureF,Dew PointF,Humidity,Sea Level PressureIn,VisibilityMPH,Wind Direction,Wind SpeedMPH,Gust SpeedMPH,PrecipitationIn,Events,Conditions,WindDirDegrees,DateUTC
12:53 AM,55.9,41.0,57,29.94,10.0,NNW,11.5,-,N/A,,Clear,340,2012-11-03 05:53:00
1:53 AM,53.1,39.9,61,29.96,10.0,North,9.2,-,N/A,,Clear,350,2012-11-03 06:53:00
2:53 AM,51.1,37.9,61,29.99,10.0,North,10.4,-,N/A,,Clear,350,2012-11-03 07:53:00
3:53 AM,50.0,34.0,54,30.01,10.0,North,10.4,-,N/A,,Clear,360,2012-11-03 08:53:00
4:53 AM,46.0,33.1,61,30.04,10.0,North,9.2,-,N/A,,Clear,360,2012-11-03 09:53:00
5:53 AM,44.1,32.0,63,30.08,10.0,NNW,6.9,-,N/A,,Clear,340,2012-11-03 10:53:00
6:53 AM,39.9,30.0,68,30.10,10.0,North,3.5,-,N/A,,Clear,350,2012-11-03 11:53:00
7:53 AM,39.9,30.9,70,30.13,10.0,NW,3.5,-,N/A,,Clear,320,2012-11-03 12:53:00
8:53 AM,43.0,32.0,65,30.16,10.0,North,3.5,-,N/A,,Clear,350,2012-11-03 13:53:00
9:53 AM,50.0,32.0,50,30.17,10.0,North,11.5,-,N/A,,Clear,10,2012-11-03 14:53:00
10:53 AM,55.0,30.9,40,30.18,10.0,North,17.3,-,N/A,,Clear,10,2012-11-03 15:53:00
11:53 AM,55.9,30.9,39,30.18,10.0,North,10.4,-,N/A,,Clear,10,2012-11-03 16:53:00
12:53 PM,60.1,32.0,35,30.17,10.0,NNE,10.4,18.4,N/A,,Clear,30,2012-11-03 17:53:00
1:53 PM,63.0,32.0,31,30.14,10.0,NE,10.4,-,N/A,,Clear,40,2012-11-03 18:53:00
2:53 PM,66.0,30.9,27,30.13,10.0,North,12.7,-,N/A,,Clear,10,2012-11-03 19:53:00
3:53 PM,66.9,30.9,26,30.13,10.0,NNE,8.1,16.1,N/A,,Clear,20,2012-11-03 20:53:00
4:53 PM,64.0,30.9,29,30.12,10.0,NNE,10.4,-,N/A,,Clear,20,2012-11-03 21:53:00
5:53 PM,63.0,30.9,30,30.13,10.0,NNE,8.1,-,N/A,,Clear,30,2012-11-03 22:53:00
6:53 PM,55.9,30.9,39,30.15,10.0,North,3.5,-,N/A,,Clear,360,2012-11-03 23:53:00
7:53 PM,53.1,30.9,43,30.17,10.0,Calm,Calm,-,N/A,,Clear,0,2012-11-04 00:53:00
8:53 PM,48.9,30.9,50,30.18,10.0,NNE,3.5,-,N/A,,Clear,30,2012-11-04 01:53:00
9:53 PM,46.0,30.9,56,30.18,10.0,NE,3.5,-,N/A,,Clear,40,2012-11-04 02:53:00
10:53 PM,44.1,30.9,60,30.18,10.0,NNE,3.5,-,N/A,,Clear,20,2012-11-04 03:53:00
11:53 PM,45.0,32.0,60,30.19,10.0,Calm,Calm,-,N/A,,Clear,0,2012-11-04 04:53:00